Hourly Data Report for May 17, 2021

MIRAMICHI RCS
NEW BRUNSWICK
Current Station Operator: ECCC - MSC

47°00'34.000" N
65°27'54.000" W
33.00 m
8100989
71744
ACQ

Download Data

Hourly Data (May 2021)
Hourly Data Report for May 17, 2021
TIME
LST
Temp Definition
°C
Dew Point Definition
°C
Rel Hum Definition
%
Precip. Amount Definition
mm

Wind Dir Definition
10's deg

Wind Spd Definition
km/h
Visibility Definition
km
Stn Press Definition
kPa
Hmdx Definition


Wind Chill Definition


Weather Definition


00:00 7.3 3.3 76 LegendMM 3 12   102.17     LegendNANA
01:00 7.1 3.6 78 LegendMM 3 9   102.20     LegendNANA
02:00 6.8 3.6 80 LegendMM 3 4   102.19     LegendNANA
03:00 6.7 3.7 81 LegendMM 4 9   102.16     LegendNANA
04:00 7.0 4.1 82 LegendMM 2 4   102.13     LegendNANA
05:00 7.1 4.3 82 LegendMM 0 1   102.13     LegendNANA
06:00 7.5 4.8 83 LegendMM 0 1   102.14     LegendNANA
07:00 8.1 5.2 82 LegendMM 36 4   102.21     LegendNANA
08:00 8.3 5.6 83 LegendMM 1 7   102.27     LegendNANA
09:00 9.5 5.5 76 LegendMM 5 6   102.27     LegendNANA
10:00 9.5 7.1 85 LegendMM 5 11   102.24     LegendNANA
11:00 12.3 8.5 78 LegendMM 8 13   102.20     LegendNANA
12:00 13.0 8.4 74 LegendMM 6 12   102.16     LegendNANA
13:00 14.9 7.9 63 LegendMM 7 12   102.09     LegendNANA
14:00 16.2 8.8 61 LegendMM 8 17   102.02     LegendNANA
15:00 15.5 8.1 61 LegendMM 6 20   101.98     LegendNANA
16:00 13.8 6.1 60 LegendMM 6 20   101.95     LegendNANA
17:00 14.1 6.8 61 LegendMM 7 17   101.92     LegendNANA
18:00 12.7 7.4 70 LegendMM 3 12   101.91     LegendNANA
19:00 10.2 7.2 81 LegendMM 6 12   101.92     LegendNANA
20:00 9.1 7.2 88 LegendMM 6 10   101.93     LegendNANA
21:00 8.4 7.1 92 LegendMM 5 9   101.96     LegendNANA
22:00 7.4 6.4 93 LegendMM 5 7   101.93     LegendNANA
23:00 6.7 6.0 95 LegendMM 6 4   101.87     LegendNANA

Notes on Data Quality.

Legend

  • E = Estimated
  • M = Missing
  • NA = Not Available*
  • [empty] = Indicates an unobserved value
Date modified: